Regional Weather Roundup
Issued by NWS San Diego, CA

Home | Current Version | Previous Version | Text Only | Print | Product List | Glossary On
Versions: 1 2 3 4 5 6 7 8 9 10 11 12 13 14 15 16 17 18 19 20 21 22 23 24 25 26 27
000
ASUS46 KSGX 251111
RWRSGX

SAN DIEGO HOURLY WEATHER ROUNDUP
NATIONAL WEATHER SERVICE SAN DIEGO CA
400 AM PDT WED MAY 25 2016

NOTE: "FAIR" INDICATES FEW OR NO CLOUDS BELOW 12,000 FEET WITH NO
SIGNIFICANT WEATHER AND/OR OBSTRUCTIONS TO VISIBILITY.

CAZ042-043-060-061-PZZ750-775-251200-

GREATER SAN DIEGO AREA

CITY           SKY/WX    TMP DP  RH WIND       PRES   REMARKS
LINDBERGH FLD  MOCLDY    63  51  65 NW3       30.06R
POINT LOMA       N/A     59  50  73 W9          N/A
NATIONAL CITY    N/A     60  53  77 CALM      30.05S
CHULA VISTA      N/A     57  53  87 NE2       29.97S
IMPERIAL BEACH CLOUDY    60  55  83 SE3       30.05S
BROWN FIELD    MOCLDY    57  52  83 CALM      30.04R
MIRAMAR MCAS   MOCLDY    58  51  78 SE3       30.04S
MONTGOMERY FLD MOCLDY    60  51  72 CALM      30.05R

$$

NORTH SAN DIEGO COUNTY

CITY           SKY/WX    TMP DP  RH WIND       PRES   REMARKS
CAMP PENDLETON CLEAR     53  49  86 CALM      30.04R
OCEANSIDE AP   CLEAR     53  48  83 CALM      30.03S
OCEANSIDE HBR    N/A     58  53  82 N3        30.06S
VISTA            N/A     55  51  84 CALM      30.02R
CARLSBAD       CLEAR     58  52  80 CALM      30.03S
DEL MAR          N/A     59  55  86 CALM      30.07R
LA JOLLA SCRIP   N/A     60  55  83 W3        30.04R
FALLBROOK        N/A     54  53  97 CALM      30.03R
ESCONDIDO        N/A     58  53  83 SW2       30.05S
SAN MARCOS       N/A     57  49  75 CALM      30.02R
POWAY            N/A     53  48  84 CALM      30.06S

$$

EAST SAN DIEGO COUNTY

CITY           SKY/WX    TMP DP  RH WIND       PRES   REMARKS
RAMONA         MOCLDY    52  48  86 CALM      30.04S
SANTEE LAKES     N/A     52  49  88 CALM      30.04S
LA MESA          N/A     55  51  86 CALM      29.98R
DESCANSO N       N/A     42  39  89 CALM      29.94R
MT. LAGUNA OBS   N/A     33  29  85 W5        29.62S WCI  29
CAMPO            N/A     39  37  92 CALM      30.00S

$$

ORANGE COUNTY AND THE LOS ANGELES BASIN

CITY           SKY/WX    TMP DP  RH WIND       PRES   REMARKS
JOHN WAYNE AP  CLEAR     58  50  75 SE3       30.04S
LAKE FOREST FR   N/A     51  46  82 CALM      29.94S
HUNTINGTON BCH   N/A     58  52  80 CALM      30.06S
LOS ALAMITOS   MOCLDY    58  51  78 W5        30.03S
FULLERTON      MOCLDY    60  50  69 CALM      30.03S
LONG BEACH     PTCLDY    59  53  80 NW7       30.04S
L.A. AP        PTCLDY    57  51  80 NW6       30.04S
L.A. DOWNTOWN  PTCLDY    58  52  80 CALM      30.03S

$$

THE INLAND EMPIRE

CITY           SKY/WX    TMP DP  RH WIND       PRES   REMARKS
CORONA         PTCLDY    56  50  80 NW3       30.04R
CHINO          PTCLDY    56  50  80 W6        30.05R
ONTARIO        MOCLDY    55  50  83 SW7       30.03S
RIVERSIDE AP   PTCLDY    56  49  77 VRB3      30.03S
MORENO VALLEY    N/A     53  52  95 NW5       28.14R
MARCH ARB      MOCLDY    54  51  90 NW6       30.03S
HORSETHIEF CYN   N/A     54  44  69 W3        30.05S
PERRIS           N/A     54  51  91 W2        30.04R
HEMET EAST       N/A     53  44  72 CALM      29.93S
FRENCH VALLEY  PTSUNNY   55  50  82 S7        30.04R
TEMECULA         N/A     57  53  87 S1        30.02R

$$

SAN BERNARDINO AND RIVERSIDE COUNTY MOUNTAINS

CITY           SKY/WX    TMP DP  RH WIND       PRES   REMARKS
BIG BEAR AP    CLEAR     28  21  74 CALM      30.04R
ANGELUS OAKS     N/A     38  34  85 CALM      29.94S
PINE COVE        N/A     34  32  94 N3        30.01S

$$

SOUTHERN DESERT INCLUDING THE COACHELLA VALLEY

CITY           SKY/WX    TMP DP  RH WIND       PRES   REMARKS
PALM SPRINGS     N/A    N/A N/A N/A MISG      29.92R
THOUSAND PALMS   N/A     63  44  49 NW17      29.89R
PALM DESERT      N/A     61  46  56 CALM        N/A
THERMAL        CLEAR     65  43  44 NW10      29.89R
BLYTHE         CLEAR     60  46  59 NW5       29.90R
IMPERIAL AP    CLEAR     60  39  45 W7        29.90S
EL CENTRO NAS  CLEAR     62  36  37 NW9       29.92S

$$

UPPER DESERT

CITY           SKY/WX    TMP DP  RH WIND       PRES   REMARKS
VICTORVILLE AP PTCLDY    48  41  76 S7        29.99S
HESPERIA         N/A     48  42  78 W8        30.10S
PALMDALE       MOCLDY    51  42  71 SW16      30.00R
LANCASTER      MOCLDY    51  43  74 SW15      29.99S
EDWARDS AFB    MOCLDY    51  40  66 SW12      29.96S
DAGGETT        CLEAR     57  41  55 W17       29.96S
29 PALMS N     CLEAR     59  35  40 NW8       30.01R
NEEDLES        CLEAR     68  36  30 SW6       29.88S

$$

REGIONAL REPORTS

CITY           SKY/WX    TMP DP  RH WIND       PRES   REMARKS
SANTA BARBARA  MOCLDY    52  49  89 N3        30.03S
SANDBERG       FOG       45  41  86 VRB7      30.04S VSB 1/2
LAS VEGAS NV   PTCLDY    63  37  38 S7        29.87S
PHOENIX AZ     CLEAR     69  31  24 E3        29.90R
TIJUANA        MOCLDY    57  50  77 CALM      30.06S
ENSENADA NW      N/A     58  32  37 CALM      30.02S

$$

OFFSHORE ISLANDS

CITY           SKY/WX    TMP DP  RH WIND       PRES   REMARKS
CATALINA ARPT  CLOUDY    52  50  93 W7        30.05S
SAN NICOLAS IS CLOUDY   N/A N/A N/A NW9       30.04S

$$

MARINE AND OFFSHORE BUOY REPORTS

STATION/POSITION SKY/WX   TEMP    WIND        PRES    SWELL
                          AIR SEA DIR/SP/G            HT/PER/DIR
                          (F)     (DEG/KT/KT) (MB)    (FT/S/D)
TANNER BANKS               60 62  320/ 12/ 14 1017.5F   2/330/ 8
S CLEMENTE BASIN           60 63  310/ 10/ 12 1017.5R   2/ 10/15
SAN NICOLAS IS.               60                N/A     2/210/15
SO. S. ROSA ISLA           57 59  310/  8/ 10 1017.4F   3/310/ 7
W. S. BARBARA CH           56 56  350/ 10/ 12 1017.0S   3/190/14
M. S. BARBARA CH           58 59  270/ 12/ 14 1017.5S
S. MONICA BASIN            59 63   CALM  /  2 1017.5R   2/190/15
S PEDRO CHANNEL               64                N/A
OCEANSIDE OFFSHR              65                N/A     2/200/15
TORREY PINES OTR              65                N/A     2/220/15
LA JOLLA 1                 62 67  290/  8/  9 1017.2F
SAN DIEGO BAY                 69              1017.5F
POINT LOMA SOUTH              66                N/A     2/220/15

$$





USA.gov is the U.S. government's official web portal to all federal, state and local government web resources and services.